Whiteman AFB, MO

6:28 AM CDT on September 20, 2017 (GMT -0500)
Whiteman Air Force Base

Weather History for KSZL - September, 2012

Change the Weather History Date:

Wednesday, September 5, 2012

  Actual Average Record
Temperature  
Mean Temperature 82 °F -  
Max Temperature 92 °F 83 °F 98 °F (2002)
Min Temperature 73 °F 62 °F 50 °F (2008)
Cooling Degree Days 18    
Growing Degree Days 32 (Base 50)    
Moisture  
Dew Point 72 °F    
Average Humidity 80    
Maximum Humidity 100    
Minimum Humidity 44    
Precipitation  
Precipitation 0.07 in - - ()
Sea Level Pressure  
Sea Level Pressure 29.80 in    
Wind  
Wind Speed 5 mph (SSE)    
Max Wind Speed 16 mph    
Max Gust Speed -    
Visibility 10 miles    
Events Rain , Thunderstorm    
Averages and records for this station are not official NWS values.
T = Trace of Precipitation, MM = Missing Value Source: NWS Daily Summary

Daily Weather History Graph

Daily Weather History Graph

Search for Another Location

Airport or City:

Trip Planner

Search our weather history database for the weather conditions in past years. The results will help you decide how hot, cold, wet, or windy it might be!

Date:

Astronomy

Sep. 05, 2012 Rise Set
Actual Time 6:47 AM CDT 7:37 PM CDT
Civil Twilight 6:20 AM CDT 8:04 PM CDT
Nautical Twilight 5:48 AM CDT 8:36 PM CDT
Astronomical Twilight 5:15 AM CDT 9:09 PM CDT
Moon 10:11 PM CDT (9/5) 11:47 AM CDT (9/5)
Length of Visible Light 13h 44m
Length of Day
12h 50m
Waning Gibbous, 76% of the Moon is Illuminated
Sep 5
Waning Gibbous
Sep 8
Last Quarter
Sep 15
New
Sep 22
First Quarter
Sep 29
Full

Hourly Weather History & Observations

Time (CDT) Temp. Heat Index Dew Point Humidity Pressure Visibility Wind Dir Wind Speed Gust Speed Precip Events Conditions
12:55 AM 73.8 °F - 73.8 °F 100% 29.76 in 10.0 mi South 4.6 mph - N/A   Clear
1:55 AM 75.0 °F - 73.4 °F 95% 29.77 in 10.0 mi Calm Calm - N/A   Clear
2:55 AM 73.9 °F - 73.9 °F 100% 29.77 in 10.0 mi SSE 3.5 mph - N/A   Clear
3:55 AM 75.0 °F - 74.8 °F 99% 29.79 in 10.0 mi WSW 9.2 mph - N/A   Mostly Cloudy
4:55 AM 75.2 °F - 75.2 °F 100% 29.78 in 10.0 mi SSW 8.1 mph - N/A   Partly Cloudy
5:15 AM 75.2 °F - 75.2 °F 100% 29.78 in 10.0 mi South 16.1 mph - N/A Rain , Thunderstorm Light Thunderstorms and Rain
5:34 AM 75.2 °F - 73.4 °F 94% 29.77 in 10.0 mi South 4.6 mph - N/A Rain , Thunderstorm Light Rain
5:35 AM 75.2 °F - 73.4 °F 94% 29.77 in 10.0 mi South 4.6 mph - N/A Thunderstorm Overcast
5:43 AM 73.4 °F - 73.4 °F 100% 29.78 in 10.0 mi SW 3.5 mph - N/A Thunderstorm Thunderstorm
5:55 AM 74.3 °F - 73.8 °F 98% 29.77 in 10.0 mi SSW 3.5 mph - 0.07 in Thunderstorm Thunderstorm
6:03 AM 75.2 °F - 71.6 °F 89% 29.77 in 10.0 mi South 4.6 mph - N/A   Mostly Cloudy
6:55 AM 73.8 °F - 73.8 °F 100% 29.80 in 10.0 mi NE 3.5 mph - N/A   Scattered Clouds
7:55 AM 73.4 °F - 73.4 °F 100% 29.82 in 10.0 mi Calm Calm - N/A   Scattered Clouds
8:55 AM 75.7 °F - 75.7 °F 100% 29.81 in 10.0 mi Calm Calm - N/A   Scattered Clouds
9:55 AM 78.4 °F - 73.2 °F 84% 29.82 in 10.0 mi North 8.1 mph - N/A   Clear
10:55 AM 86.7 °F 90.3 °F 68.2 °F 54% 29.82 in 10.0 mi North 9.2 mph - N/A   Clear
11:55 AM 88.5 °F 91.2 °F 66.4 °F 48% 29.83 in 10.0 mi Variable 5.8 mph - N/A   Clear
12:55 PM 87.8 °F 93.0 °F 70.5 °F 56% 29.82 in 10.0 mi ESE 10.4 mph - N/A   Clear
1:55 PM 89.8 °F 94.6 °F 69.3 °F 51% 29.81 in 10.0 mi SE 6.9 mph - N/A   Clear
2:55 PM 91.4 °F 96.3 °F 69.1 °F 48% 29.81 in 10.0 mi Variable 5.8 mph - N/A   Clear
3:55 PM 91.0 °F 95.6 °F 69.1 °F 48% 29.81 in 10.0 mi SSE 6.9 mph - N/A   Partly Cloudy
4:55 PM 92.3 °F 96.1 °F 67.5 °F 44% 29.80 in 10.0 mi SE 5.8 mph - N/A   Clear
5:55 PM 90.0 °F 95.9 °F 70.9 °F 53% 29.80 in 10.0 mi SE 3.5 mph - N/A   Partly Cloudy
6:55 PM 88.2 °F 94.6 °F 71.8 °F 58% 29.80 in 10.0 mi ESE 3.5 mph - N/A   Clear
7:55 PM 83.5 °F 89.4 °F 72.7 °F 70% 29.81 in 10.0 mi NE 3.5 mph - N/A   Clear
8:55 PM 80.8 °F 85.2 °F 72.5 °F 76% 29.83 in 10.0 mi Calm Calm - N/A   Clear
9:55 PM 79.3 °F - 71.6 °F 77% 29.84 in 10.0 mi Calm Calm - N/A   Clear
10:55 PM 76.5 °F - 73.4 °F 90% 29.85 in 10.0 mi SSW 3.5 mph - N/A   Clear
11:55 PM 76.1 °F - 72.5 °F 89% 29.86 in 10.0 mi North 3.5 mph - N/A   Clear